Pagina principală
METAR-TAF:

METAR-TAF

Aeroporturi :

Riberalta, Bolivia

Latitudine: 11-00S, longitudine: 066-07W, elevație: 141 m

Observații meteo curente

Raportul a fost făcut în urmă cu 11 ore și 6 de minute, la 22:00 UTC
Vânt calm
Temperatură 32°C
Umiditate 56%
Presiune 1010 hPa
Vizibilitate de 10 km sau mai mult

METAR: SLRI 132200Z 00000KT 9999 NSC 32/22 Q1010

Ora: 05:06 (09:06 UTC)


TAF: lipsă

Observații și prognoze meteo pentru peste 4.000 de aeroporturi (rapoarte METAR și TAF).

Stațiile disponibile sunt reprezentate pe hartă prin puncte galbene și roșii.

Țineți indicatorul mouse-ului pe punctul dorit pentru a vedea denumirea stației.

Apoi, faceți clic pentru a vedea observațiile și prognozele meteorologice.

Pentru a schimba harta: Pentru mărire, faceți clic pe butoanele verzi cu cruce neagră; pentru micșorare, pe butonul verde cu o liniuță; pentru hărți învecinate, pe săgețile verzi.


METAR-TAF: